Hourly Data Report for October 04, 2014

All times are specified in Local Standard Time (LST). Add 1 hour to adjust for Daylight Saving Time where and when it is observed.

KAMLOOPS A
BRITISH COLUMBIA

50°42'09.000" N
120°26'55.000" W
345.30 m
1163781
71887
YKA

Download Data

Hourly Data (October 2014)
Hourly Data Report for October 4, 2014
Temp Definition
°C
Dew Point Temp Definition
°C
Rel Hum Definition
%
Wind Dir Definition
10's deg

Wind Spd Definition
km/h
Visibility Definition
km
Stn Press Definition
kPa
Hmdx Definition


Wind Chill Definition


Weather Definition


TIME
00:00 Legend Double Dagger 8.7 6.2 84 7 9 64.4 98.05     LegendNANA
01:00 Legend Double Dagger 8.4 6.4 87 10 12 64.4 98.10     Mostly Cloudy
02:00 Legend Double Dagger 8.4 6.4 87 8 12 64.4 98.09     LegendNANA
03:00 Legend Double Dagger 8.7 6.3 85 9 13 64.4 98.13     LegendNANA
04:00 Legend Double Dagger 6.8 5.4 91 9 8 64.4 98.14     Mainly Clear
05:00 Legend Double Dagger 7.3 5.9 91 11 9 64.4 98.16     LegendNANA
06:00 Legend Double Dagger 6.3 5.0 91 1 4 64.4 98.16     LegendNANA
07:00 Legend Double Dagger 6.5 5.3 92 36 2 64.4 98.15     Mainly Clear
08:00 Legend Double Dagger 8.4 6.5 88 10 9 64.4 98.20     LegendNANA
09:00 Legend Double Dagger 10.7 6.7 76 10 14 64.4 98.18     LegendNANA
10:00 Legend Double Dagger 11.8 6.6 70 10 15 64.4 98.14     Mainly Clear
11:00 Legend Double Dagger 13.1 7.2 67 11 15 64.4 98.09     LegendNANA
12:00 Legend Double Dagger 14.9 7.8 62 10 14 64.4 98.01     LegendNANA
13:00 Legend Double Dagger 16.3 8.4 59 9 12 64.4 97.92     Mostly Cloudy
14:00 Legend Double Dagger 17.5 8.2 54 12 14 64.4 97.85     LegendNANA
15:00 Legend Double Dagger 18.4 8.5 52 9 15 64.4 97.80     LegendNANA
16:00 Legend Double Dagger 18.4 8.5 52 10 16 64.4 97.76     Mainly Clear
17:00 Legend Double Dagger 17.3 8.5 56 11 14 64.4 97.73     LegendNANA
18:00 Legend Double Dagger 16.2 8.8 61 12 16 64.4 97.77     LegendNANA
19:00 Legend Double Dagger 14.9 8.9 67 12 18 64.4 97.80     Clear
20:00 Legend Double Dagger 14.1 8.6 69 13 12 64.4 97.88     LegendNANA
21:00 Legend Double Dagger 10.7 7.1 78 6 7 64.4 97.96     LegendNANA
22:00 Legend Double Dagger 11.2 7.7 79   0 64.4 97.98     Clear
23:00 Legend Double Dagger 8.9 7.0 88 31 3 64.4 98.00     LegendNANA

Notes on Data Quality.

Legend

  • E = Estimated
  • M = Missing
  • NA = Not Available
  • ‡ = Partner data that is not subject to review by the National Climate Archives
Date modified: